Location: York
(31.8935°S, 116.7682°E)
Time: 08:57:40
(UTC+08:00)

N. Korean satellite - Pass Details

Date: 21 May 2021
Orbit: 450 x 500 km, 97.2° (Epoch: 13 June)

Event Time Altitude Azimuth Distance (km) Brightness Sun altitude
Rises 04:34:46 0° 24° (NNE) 2,491 10.5 -30.2°
Reaches altitude 10° 04:36:49 10° 30° (NNE) 1,632 9.6 -29.7°
Enters shadow 04:37:00 11° 31° (NNE) 1,559 9.5 -29.7°
